Tracking 30995 objects as of 5-Jul-2025
HD Live streaming from Space Station
objects crossing your sky now

AGILA

Track AGILA now!


NORAD ID: 62456
Int'l Code: 2024-252C
Perigee: 30,495.1 km
Apogee: 50,506.1 km
Inclination: 0.5 °
Period: 1,683.2 minutes
Semi major axis: 46871 km
RCS: Unknown
Launch date: December 29, 2024
Source: United Kingdom (UK)
Launch site: AIR FORCE EASTERN TEST RANGE (AFETR)
Your satellite tracking list
EUTE 25A (HB 5)
Track 1 satellite(s)




NASA's NSSDC Master Catalog

Two Line Element Set (TLE):
1 62456U 24252C   25183.73107825 -.00000146  00000-0  00000+0 0  9991
2 62456   0.5198 307.4705 2134658 244.5122  61.1510  0.85553587  1699
Source of the keplerian elements: AFSPC